• Join FlightAware (Why Join?)
  • Login
  • US Flag 
09:15AM EST


 

Airport Tracker/Info


-or-


 

Live Flight TrackerFlight Track Log ✈ EJA646 ✈ 28-Apr-2013 ✈ KORH - KACK

Flight Track Log - Related Links

Times and Time Zones

All times are in EDT time to prevent confusion due to time zone crossing. See the EJA646 flight status page for this flight to view local times or setup timezone preferences in your user account.

Time Position Orientation Groundspeed Altitude Reporting Facility
EDT Latitude Longitude Course Direction KTS MPH feet Rate Location/Type
12:07PM 42.2658 -71.9183 274° West 209 241 2,500  Level Boston Center
12:08PM 42.2703 -71.9969 274° West 217 250 3,500 1,920 Climbing Boston Center
12:10PM 42.2183 -72.0392 211° Southwest 227 261 6,400 2,460 Climbing Boston Center
12:11PM 42.1539 -72.0367 178° South 255 293 8,700 2,520 Climbing Boston Center
12:12PM 42.0642 -72.0178 171° South 284 327 11,500 1,920 Climbing Boston Center
12:13PM 42.0053 -71.9428 137° Southeast 315 362 13,000 1,140 Climbing Boston Center
12:14PM 41.9217 -71.8375 137° Southeast 332 382 14,100 960 Climbing Boston Center
12:15PM 41.8481 -71.7267 132° Southeast 354 407 15,000 420 Climbing Boston Center
12:16PM 41.7889 -71.6272 129° Southeast 376 433 15,000  Level Boston Center
12:17PM 41.7172 -71.5194 132° Southeast 376 433 15,000  Level Boston Center
12:18PM 41.6289 -71.4181 139° Southeast 376 433 15,000  Level Boston Center
12:19PM 41.5550 -71.3361 140° Southeast 387 445 15,000  Level Boston Center
12:20PM 41.4644 -71.2350 140° Southeast 387 445 15,000 -240 Level Boston Center
12:21PM 41.3928 -71.1506 139° Southeast 380 437 14,600 -1,020 Descending Boston Center
12:22PM 41.3061 -71.0556 141° Southeast 380 437 13,000 -1,500 Descending Boston Center
12:23PM 41.2364 -70.9772 140° Southeast 375 432 11,600 -1,020 Descending Boston Center
12:24PM 41.1769 -70.9094 139° Southeast 365 420 11,000 -1,020 Descending Boston Center
12:25PM 41.1336 -70.7783 114° Southeast 308 354 9,600 -1,380 Descending Boston Center
12:26PM 41.1258 -70.6764 96° East 284 327 8,300 -1,320 Descending Boston Center
12:27PM 41.1158 -70.5722 97° East 279 321 7,000 -1,380 Descending Boston Center
12:28PM 41.1078 -70.4703 96° East 274 315 5,600 -1,020 Descending Boston Center
12:29PM 41.1017 -70.3714 95° East 274 315 5,000 -360 Descending Boston Center
12:30PM 41.0958 -70.2725 94° East 274 315 4,900 -840 Descending Boston Center
12:31PM 41.1186 -70.1614 75° East 262 302 3,200 -960 Descending Boston Center
12:32PM 41.1419 -70.0753 70° East 257 296 3,000 -600 Descending Boston Center
12:33PM 41.1950 -70.0264 35° Northeast 234 269 2,000 -780 Descending Boston Center
12:34PM 41.2447 -70.0133 11° North 193 222 1,500 -720 Descending Boston Center
12:35PM 41.2703 -70.0344 328° Northwest 133 153 600 -540 Descending Boston Center
12:36PM 41.2894 -70.0531 324° Northwest 98 113 500 7,200 Descending Boston Center
12:37PM 41.3147 -70.0661 339° North 98 113 15,000 14,460 Climbing Boston Center